Content
SEND FEEDBACK

Daily
Averages
Monthly
Summary
Netherlands

HAARLEM, NETHERLANDS


Home > Europe > Netherlands
Elevation: 62 feet     Latitude: 52 28N     Longitude: 004 35E

WEATHER
 
SELECT A DAY
Number of Records: 301,919;   Date Range: 7/1/96 - 7/20/14
 
SHARE

PRINT THIS DATA

[ ← Previous Day ]
WEATHER ALMANAC - JULY 28, 2013
[ Next Day → ]
[ °C ]   °F
Weather ElementAverageHighLow
Temperature69.1 °F75.2 °F (3:55 pm)64.4 °F (10:55 pm)
Dewpoint60.5 °F68 °F (12:55 am)54 °F (2:00 pm)
Humidity74.8 %100 % (12:55 am)46 % (2:00 pm)
Barometer29.78 in29.89 in (10:25 pm)29.59 in (2:55 am)
Wind Speed13 mph19.6 mph (10:55 am)
Weather ElementAverage
Visibility7.1 mi
Wind DirectionSSW (198 °)

Weather ElementTotal
Precipitation---
Cooling Degree Days4.8 (Base 65)
Growing Degree Days19.8 (Base 50)
Averaged from 54 records on July 28, 2013
WEATHER CONDITIONS BREAKOUT
WIND DIRECTION BREAKOUT
WEATHER BY HOUR - JULY 28, 2013
[ °C ]   °F
Local TimeTemperatureDewpointHumidityBarometerVisibilityWind DirectionWind SpeedGust SpeedPrecipitationEventsConditions
12:55 AM68.0 °F68.0 °F100 %29.71 in4.3 miSSE (160°)8.1 mphRain-ThunderstormLight Thunderstorms and Rain
1:25 AM68.0 °F68.0 °F100 %29.71 in2.2 miSSE (160°)11.5 mphRainRain Showers
1:55 AM68.0 °F66.2 °F94 %29.68 in3.1 miSE (130°)13.8 mphRainLight Rain Showers
2:00 AM67.0 °F67.0 °F98 %29.69 in2.0 miSE (130°)13.4 mphRainHeavy Rain
2:25 AM66.2 °F66.2 °F100 %29.62 in5.0 miENE (70°)10.4 mphPartly Cloudy
2:55 AM66.2 °F66.2 °F100 %29.59 in5.6 miEast (90°)6.9 mph
3:25 AM66.2 °F66.2 °F100 %29.62 in5.6 miSSE (160°)8.1 mph
3:55 AM66.2 °F66.2 °F100 %29.65 in6.2 miSSE (150°)11.5 mphMostly Cloudy
4:25 AM68.0 °F66.2 °F94 %29.65 in6.2 miSouth (170°)12.7 mphMostly Cloudy
4:55 AM68.0 °F66.2 °F94 %29.65 in6.2 miSouth (190°)11.5 mphMostly Cloudy
5:00 AM68.0 °F66.0 °F90 %29.68 in8.0 miSouth (180°)13.4 mphPartly Cloudy
5:25 AM68.0 °F66.2 °F94 %29.68 in6.2 miSouth (190°)12.7 mphMostly Cloudy
5:55 AM66.2 °F62.6 °F88 %29.68 in6.2 miSW (220°)13.8 mphMostly Cloudy
6:25 AM66.2 °F62.6 °F88 %29.71 in6.2 miSSW (200°)16.1 mphMostly Cloudy
6:55 AM66.2 °F62.6 °F88 %29.71 in6.2 miSSW (210°)16.1 mphLight Drizzle
7:25 AM66.2 °F62.6 °F88 %29.74 in6.2 miSW (220°)17.3 mphScattered Clouds
7:55 AM66.2 °F62.6 °F88 %29.74 in6.2 miSW (230°)13.8 mphMostly Cloudy
8:00 AM66.0 °F62.0 °F82 %29.74 in7.0 miSW (230°)13.4 mphPartly Cloudy
8:25 AM66.2 °F60.8 °F83 %29.74 in6.2 miSW (220°)17.3 mphMostly Cloudy
8:55 AM66.2 °F59.0 °F78 %29.77 in6.2 miSW (220°)16.1 mphMostly Cloudy
9:25 AM66.2 °F59.0 °F78 %29.77 in6.2 miSW (220°)17.3 mphMostly Cloudy
9:55 AM66.2 °F59.0 °F78 %29.77 in6.2 miSW (220°)17.3 mphScattered Clouds
10:25 AM68.0 °F59.0 °F73 %29.80 in6.2 miSW (220°)18.4 mphScattered Clouds
10:55 AM68.0 °F59.0 °F73 %29.80 in6.2 miSW (220°)19.6 mphPartly Cloudy
11:00 AM68.0 °F60.0 °F67 %29.81 in19.0 miSW (220°)17.9 mphScattered Clouds
11:25 AM69.8 °F59.0 °F68 %29.80 in6.2 miSSW (210°)18.4 mphPartly Cloudy
11:55 AM68.0 °F59.0 °F73 %29.80 in6.2 miSW (220°)16.1 mphPartly Cloudy
12:25 PM68.0 °F59.0 °F73 %29.80 in6.2 miSSW (210°)17.3 mphPartly Cloudy
12:55 PM69.8 °F59.0 °F68 %29.83 in6.2 miSW (220°)15.0 mphPartly Cloudy
1:25 PM71.6 °F59.0 °F64 %29.83 in6.2 miSW (220°)15.0 mphPartly Cloudy
1:55 PM71.6 °F55.4 °F57 %29.83 in6.2 miWSW (240°)16.1 mphPartly Cloudy
2:00 PM71.0 °F54.0 °F46 %29.85 in22.0 miSW (230°)17.9 mphPartly Cloudy
2:25 PM73.4 °F55.4 °F53 %29.83 in6.2 miSW (230°)15.0 mphPartly Cloudy
2:55 PM73.4 °F55.4 °F53 %29.83 in6.2 miWSW (250°)17.3 mphPartly Cloudy
3:25 PM73.4 °F57.2 °F57 %29.86 in6.2 miSW (220°)15.0 mphPartly Cloudy
3:55 PM75.2 °F55.4 °F50 %29.86 in6.2 miSSW (210°)16.1 mphPartly Cloudy
4:25 PM73.4 °F57.2 °F57 %29.83 in6.2 miSW (220°)13.8 mphPartly Cloudy
4:55 PM73.4 °F57.2 °F57 %29.83 in6.2 miSSW (210°)13.8 mphPartly Cloudy
5:00 PM73.0 °F58.0 °F51 %29.86 in19.0 miSSW (210°)13.4 mphMostly Cloudy
5:25 PM73.4 °F57.2 °F57 %29.83 in6.2 miSSW (200°)15.0 mphPartly Cloudy
5:55 PM73.4 °F57.2 °F57 %29.86 in6.2 miSW (230°)11.5 mphPartly Cloudy
6:25 PM73.4 °F60.8 °F65 %29.86 in6.2 miWSW (250°)8.1 mphPartly Cloudy
6:55 PM73.4 °F59.0 °F61 %29.86 in6.2 miWSW (250°)8.1 mphPartly Cloudy
7:25 PM73.4 °F57.2 °F57 %29.86 in6.2 miWSW (240°)10.4 mphPartly Cloudy
7:55 PM73.4 °F59.0 °F61 %29.86 in6.2 miSW (230°)10.4 mphPartly Cloudy
8:00 PM73.0 °F57.0 °F47 %29.88 in25.0 miSW (220°)13.4 mphPartly Cloudy
8:25 PM71.6 °F57.2 °F60 %29.86 in6.2 miSSW (200°)10.4 mphPartly Cloudy
8:55 PM71.6 °F57.2 °F60 %29.86 in6.2 miSSW (200°)8.1 mphPartly Cloudy
9:25 PM68.0 °F59.0 °F73 %29.86 in6.2 miSSW (200°)8.1 mphPartly Cloudy
9:55 PM68.0 °F59.0 °F73 %29.86 in6.2 miSouth (190°)5.8 mphPartly Cloudy
10:25 PM66.2 °F59.0 °F78 %29.89 in6.2 miSE (140°)4.6 mphPartly Cloudy
10:55 PM64.4 °F59.0 °F83 %29.89 inSE (130°)5.8 mphClear
11:25 PM64.4 °F59.0 °F83 %29.89 inSE (140°)6.9 mphClear
11:55 PM64.4 °F59.0 °F83 %29.89 inSE (140°)6.9 mphClear
Hourly data recorded from EHAM, located miles away from Haarlem, Netherlands







STORIES FROM OUR PARTNERS